Time,TemperatureF,DewpointF,PressureIn,WindDirection,WindDirectionDegrees,WindSpeedMPH,WindSpeedGustMPH,Humidity,HourlyPrecipIn,Conditions,Clouds,dailyrainin,SoftwareType,DateUTC
2013-01-22 00:00:00,20.5,-6.0,29.86,SSE,163,3.6,7.6,30,0.00,,---,0.00,VWS V14.01,2013-01-22 05:00:00,
2013-01-22 00:02:00,20.5,-4.7,29.86,SSW,208,5.8,5.8,32,0.00,,---,0.00,VWS V14.01,2013-01-22 05:02:00,
2013-01-22 00:03:00,20.5,-4.7,29.86,WSW,242,4.0,5.8,32,0.00,,---,0.00,VWS V14.01,2013-01-22 05:03:00,
2013-01-22 00:08:00,20.3,-4.8,29.86,SW,217,9.2,11.4,32,0.00,,---,0.00,VWS V14.01,2013-01-22 05:08:00,
2013-01-22 00:13:00,20.3,-4.8,29.86,SW,221,5.4,5.4,32,0.00,,---,0.00,VWS V14.01,2013-01-22 05:13:00,
2013-01-22 00:18:00,20.1,-5.0,29.86,SW,233,2.7,3.6,32,0.00,,---,0.00,VWS V14.01,2013-01-22 05:18:00,
2013-01-22 00:23:00,19.9,-4.5,29.86,SSW,195,5.4,5.4,33,0.00,,---,0.00,VWS V14.01,2013-01-22 05:23:00,
2013-01-22 00:28:00,19.8,-5.3,29.86,SSW,206,7.6,7.6,32,0.00,,---,0.00,VWS V14.01,2013-01-22 05:28:00,
2013-01-22 00:33:00,19.6,-4.8,29.86,SW,232,6.3,8.1,33,0.00,,---,0.00,VWS V14.01,2013-01-22 05:33:00,
2013-01-22 00:38:00,19.2,-5.2,29.86,ENE,72,4.0,10.5,33,0.00,,---,0.00,VWS V14.01,2013-01-22 05:38:00,
2013-01-22 00:43:00,19.0,-5.3,29.86,SW,223,3.6,5.8,33,0.00,,---,0.00,VWS V14.01,2013-01-22 05:43:00,
2013-01-22 00:48:00,19.0,-5.3,29.86,West,266,2.2,3.1,33,0.00,,---,0.00,VWS V14.01,2013-01-22 05:48:00,
2013-01-22 00:53:00,18.7,-5.6,29.86,ENE,59,5.8,5.8,33,0.00,,---,0.00,VWS V14.01,2013-01-22 05:53:00,
2013-01-22 00:58:00,18.5,-5.8,29.86,SSW,197,5.4,7.6,33,0.00,,---,0.00,VWS V14.01,2013-01-22 05:58:00,
2013-01-22 01:04:00,18.3,-6.0,29.86,WSW,237,2.7,4.9,33,0.00,,---,0.00,VWS V14.01,2013-01-22 06:04:00,
2013-01-22 01:09:00,18.1,-6.1,29.86,SSW,207,5.8,10.5,33,0.00,,---,0.00,VWS V14.01,2013-01-22 06:09:00,
2013-01-22 01:14:00,18.0,-8.2,29.86,SE,141,7.2,8.3,30,0.00,,---,0.00,VWS V14.01,2013-01-22 06:14:00,
2013-01-22 01:19:00,17.8,-8.4,29.86,SW,224,3.1,6.3,30,0.00,,---,0.00,VWS V14.01,2013-01-22 06:19:00,
2013-01-22 01:24:00,17.6,-7.9,29.86,SSE,168,5.8,6.3,31,0.00,,---,0.00,VWS V14.01,2013-01-22 06:24:00,
2013-01-22 01:29:00,17.4,-8.0,29.86,SW,220,8.3,11.0,31,0.00,,---,0.00,VWS V14.01,2013-01-22 06:29:00,
2013-01-22 01:34:00,17.2,-8.2,29.86,SW,235,4.0,4.0,31,0.00,,---,0.00,VWS V14.01,2013-01-22 06:34:00,
2013-01-22 01:39:00,17.1,-7.1,29.86,ENE,75,3.1,6.3,33,0.00,,---,0.00,VWS V14.01,2013-01-22 06:39:00,
2013-01-22 01:44:00,16.9,-7.2,29.89,SSE,163,3.1,3.1,33,0.00,,---,0.00,VWS V14.01,2013-01-22 06:44:00,
2013-01-22 01:49:00,16.9,-7.2,29.89,SSW,196,2.7,6.3,33,0.00,,---,0.00,VWS V14.01,2013-01-22 06:49:00,
2013-01-22 01:54:00,16.7,-6.8,29.89,SW,221,5.8,6.3,34,0.00,,---,0.00,VWS V14.01,2013-01-22 06:54:00,
2013-01-22 01:59:00,16.3,-7.1,29.89,SE,125,3.6,5.4,34,0.00,,---,0.00,VWS V14.01,2013-01-22 06:59:00,
2013-01-22 02:04:00,16.2,-7.3,29.89,NNW,339,3.1,5.4,34,0.00,,---,0.00,VWS V14.01,2013-01-22 07:04:00,
2013-01-22 02:09:00,16.2,-7.3,29.89,South,182,10.5,10.5,34,0.00,,---,0.00,VWS V14.01,2013-01-22 07:09:00,
2013-01-22 02:14:00,16.2,-7.3,29.89,SW,214,7.6,7.6,34,0.00,,---,0.00,VWS V14.01,2013-01-22 07:14:00,
2013-01-22 02:19:00,16.0,-7.4,29.89,SSW,203,3.1,3.1,34,0.00,,---,0.00,VWS V14.01,2013-01-22 07:19:00,
2013-01-22 02:24:00,15.8,-7.6,29.89,SE,127,4.5,5.4,34,0.00,,---,0.00,VWS V14.01,2013-01-22 07:24:00,
2013-01-22 02:29:00,15.4,-7.3,29.89,West,279,2.7,2.7,35,0.00,,---,0.00,VWS V14.01,2013-01-22 07:29:00,
2013-01-22 02:34:00,15.3,-8.1,29.89,SSW,199,0.0,0.0,34,0.00,,---,0.00,VWS V14.01,2013-01-22 07:34:00,
2013-01-22 02:40:00,15.1,-8.2,29.89,SW,216,4.0,4.0,34,0.00,,---,0.00,VWS V14.01,2013-01-22 07:40:00,
2013-01-22 02:45:00,14.9,-8.4,29.89,SSW,209,3.1,5.8,34,0.00,,---,0.00,VWS V14.01,2013-01-22 07:45:00,
2013-01-22 02:50:00,14.5,-8.1,29.89,SW,235,5.4,5.4,35,0.00,,---,0.00,VWS V14.01,2013-01-22 07:50:00,
2013-01-22 02:55:00,14.4,-8.3,29.89,WSW,239,2.7,3.6,35,0.00,,---,0.00,VWS V14.01,2013-01-22 07:55:00,
2013-01-22 03:00:00,14.4,-8.3,29.92,SW,225,3.6,4.0,35,0.00,,---,0.00,VWS V14.01,2013-01-22 08:00:00,
2013-01-22 03:05:00,14.2,-8.4,29.92,SSW,201,5.8,5.8,35,0.00,,---,0.00,VWS V14.01,2013-01-22 08:05:00,
2013-01-22 03:10:00,13.8,-8.8,29.92,SW,221,0.0,0.0,35,0.00,,---,0.00,VWS V14.01,2013-01-22 08:10:00,
2013-01-22 03:15:00,13.8,-8.8,29.89,SSE,159,4.9,4.9,35,0.00,,---,0.00,VWS V14.01,2013-01-22 08:15:00,
2013-01-22 03:20:00,13.6,-8.9,29.89,SSW,213,0.0,3.1,35,0.00,,---,0.00,VWS V14.01,2013-01-22 08:20:00,
2013-01-22 03:25:00,13.5,-9.1,29.92,SE,130,3.6,3.6,35,0.00,,---,0.00,VWS V14.01,2013-01-22 08:25:00,
2013-01-22 03:30:00,13.3,-9.2,29.92,SSE,159,11.0,11.0,35,0.00,,---,0.00,VWS V14.01,2013-01-22 08:30:00,
2013-01-22 03:35:00,13.3,-9.2,29.92,SSW,195,5.4,5.4,35,0.00,,---,0.00,VWS V14.01,2013-01-22 08:35:00,
2013-01-22 03:40:00,13.1,-9.4,29.92,West,273,5.4,8.7,35,0.00,,---,0.00,VWS V14.01,2013-01-22 08:40:00,
2013-01-22 03:46:00,12.9,-9.6,29.92,SSW,198,4.9,8.1,35,0.00,,---,0.00,VWS V14.01,2013-01-22 08:46:00,
2013-01-22 03:51:00,12.7,-9.7,29.92,SSE,166,4.0,5.4,35,0.00,,---,0.00,VWS V14.01,2013-01-22 08:51:00,
2013-01-22 03:56:00,12.7,-9.7,29.92,SSW,193,2.7,4.0,35,0.00,,---,0.00,VWS V14.01,2013-01-22 08:56:00,
2013-01-22 04:01:00,12.6,-9.9,29.92,SW,232,4.9,5.8,35,0.00,,---,0.00,VWS V14.01,2013-01-22 09:01:00,
2013-01-22 04:06:00,12.6,-9.9,29.92,NE,43,4.0,8.7,35,0.00,,---,0.00,VWS V14.01,2013-01-22 09:06:00,
2013-01-22 04:11:00,12.6,-9.9,29.92,South,172,2.7,6.3,35,0.00,,---,0.00,VWS V14.01,2013-01-22 09:11:00,
2013-01-22 04:16:00,12.2,-10.2,29.92,SSE,150,6.3,6.3,35,0.00,,---,0.00,VWS V14.01,2013-01-22 09:16:00,
2013-01-22 04:21:00,12.0,-10.4,29.92,ESE,113,3.1,5.4,35,0.00,,---,0.00,VWS V14.01,2013-01-22 09:21:00,
2013-01-22 04:26:00,12.0,-10.4,29.92,SE,133,3.1,6.7,35,0.00,,---,0.00,VWS V14.01,2013-01-22 09:26:00,
2013-01-22 04:31:00,11.8,-10.5,29.92,SE,146,4.9,4.9,35,0.00,,---,0.00,VWS V14.01,2013-01-22 09:31:00,
2013-01-22 04:36:00,11.7,-10.7,29.92,SW,221,2.2,3.6,35,0.00,,---,0.00,VWS V14.01,2013-01-22 09:36:00,
2013-01-22 04:41:00,11.5,-10.9,29.92,SE,141,3.1,3.1,35,0.00,,---,0.00,VWS V14.01,2013-01-22 09:41:00,
2013-01-22 04:46:00,11.3,-11.0,29.92,South,184,2.2,5.8,35,0.00,,---,0.00,VWS V14.01,2013-01-22 09:46:00,
2013-01-22 04:51:00,11.3,-11.0,29.92,SSW,203,10.1,10.1,35,0.00,,---,0.00,VWS V14.01,2013-01-22 09:51:00,
2013-01-22 04:56:00,11.1,-11.2,29.92,SSE,167,3.1,5.8,35,0.00,,---,0.00,VWS V14.01,2013-01-22 09:56:00,
2013-01-22 05:01:00,11.1,-11.2,29.92,SE,139,6.3,11.0,35,0.00,,---,0.00,VWS V14.01,2013-01-22 10:01:00,
2013-01-22 05:07:00,10.9,-11.3,29.92,SW,225,7.6,14.5,35,0.00,,---,0.00,VWS V14.01,2013-01-22 10:07:00,
2013-01-22 05:12:00,10.9,-11.3,29.92,SW,224,10.5,10.5,35,0.00,,---,0.00,VWS V14.01,2013-01-22 10:12:00,
2013-01-22 05:17:00,10.8,-11.5,29.92,SW,216,13.2,13.2,35,0.00,,---,0.00,VWS V14.01,2013-01-22 10:17:00,
2013-01-22 05:22:00,10.8,-11.5,29.92,SW,223,10.5,10.5,35,0.00,,---,0.00,VWS V14.01,2013-01-22 10:22:00,
2013-01-22 05:27:00,10.8,-11.5,29.95,SE,132,4.0,10.5,35,0.00,,---,0.00,VWS V14.01,2013-01-22 10:27:00,
2013-01-22 05:32:00,10.6,-11.7,29.95,SSW,197,5.4,8.7,35,0.00,,---,0.00,VWS V14.01,2013-01-22 10:32:00,
2013-01-22 05:37:00,10.4,-11.8,29.95,South,171,8.1,10.1,35,0.00,,---,0.00,VWS V14.01,2013-01-22 10:37:00,
2013-01-22 05:42:00,10.4,-11.8,29.95,SW,216,4.9,5.8,35,0.00,,---,0.00,VWS V14.01,2013-01-22 10:42:00,
2013-01-22 05:47:00,10.2,-12.0,29.95,SW,236,8.1,8.1,35,0.00,,---,0.00,VWS V14.01,2013-01-22 10:47:00,
2013-01-22 05:52:00,10.2,-12.0,29.95,SW,216,3.6,8.1,35,0.00,,---,0.00,VWS V14.01,2013-01-22 10:52:00,
2013-01-22 05:57:00,10.0,-12.1,29.95,SW,227,4.0,4.0,35,0.00,,---,0.00,VWS V14.01,2013-01-22 10:57:00,
2013-01-22 06:02:00,10.0,-12.1,29.95,WSW,243,5.4,6.3,35,0.00,,---,0.00,VWS V14.01,2013-01-22 11:02:00,
2013-01-22 06:07:00,10.0,-12.1,29.95,SSW,209,3.1,4.0,35,0.00,,---,0.00,VWS V14.01,2013-01-22 11:07:00,
2013-01-22 06:12:00,9.9,-12.3,29.95,SW,234,3.6,7.2,35,0.00,,---,0.00,VWS V14.01,2013-01-22 11:12:00,
2013-01-22 06:17:00,9.9,-12.3,29.95,SSW,194,5.4,5.4,35,0.00,,---,0.00,VWS V14.01,2013-01-22 11:17:00,
2013-01-22 06:23:00,9.7,-12.5,29.95,WSW,247,2.2,5.8,35,0.00,,---,0.00,VWS V14.01,2013-01-22 11:23:00,
2013-01-22 06:28:00,9.7,-12.5,29.95,SSW,198,0.0,0.0,35,0.00,,---,0.00,VWS V14.01,2013-01-22 11:28:00,
2013-01-22 06:33:00,9.5,-12.6,29.95,East,101,3.1,3.1,35,0.00,,---,0.00,VWS V14.01,2013-01-22 11:33:00,
2013-01-22 06:38:00,9.5,-12.6,29.95,South,191,5.4,5.4,35,0.00,,---,0.00,VWS V14.01,2013-01-22 11:38:00,
2013-01-22 06:43:00,9.3,-12.8,29.95,ESE,108,5.4,5.4,35,0.00,,---,0.00,VWS V14.01,2013-01-22 11:43:00,
2013-01-22 06:48:00,9.3,-12.8,29.95,WSW,242,3.1,3.1,35,0.00,,---,0.00,VWS V14.01,2013-01-22 11:48:00,
2013-01-22 06:53:00,9.3,-12.8,29.95,WSW,249,3.1,4.0,35,0.00,,---,0.00,VWS V14.01,2013-01-22 11:53:00,
2013-01-22 06:58:00,9.1,-12.9,29.95,SSE,161,0.0,0.0,35,0.00,,---,0.00,VWS V14.01,2013-01-22 11:58:00,
2013-01-22 07:03:00,9.0,-13.1,29.95,SW,232,4.0,4.0,35,0.00,,---,0.00,VWS V14.01,2013-01-22 12:03:00,
2013-01-22 07:08:00,8.8,-13.3,29.95,SW,222,2.7,2.7,35,0.00,,---,0.00,VWS V14.01,2013-01-22 12:08:00,
2013-01-22 07:13:00,8.6,-13.4,29.98,SW,222,3.6,4.0,35,0.00,,---,0.00,VWS V14.01,2013-01-22 12:13:00,
2013-01-22 07:18:00,8.6,-13.4,29.98,ESE,115,3.6,3.6,35,0.00,,---,0.00,VWS V14.01,2013-01-22 12:18:00,
2013-01-22 07:23:00,8.6,-13.4,29.98,South,169,2.7,5.4,35,0.00,,---,0.00,VWS V14.01,2013-01-22 12:23:00,
2013-01-22 07:28:00,8.4,-13.6,29.98,SW,219,3.1,3.6,35,0.00,,---,0.00,VWS V14.01,2013-01-22 12:28:00,
2013-01-22 07:33:00,8.4,-13.6,29.98,SSW,195,0.0,0.0,35,0.00,,---,0.00,VWS V14.01,2013-01-22 12:33:00,
2013-01-22 07:38:00,8.4,-13.6,29.98,SW,229,5.4,6.3,35,0.00,,---,0.00,VWS V14.01,2013-01-22 12:38:00,
2013-01-22 07:44:00,8.2,-13.8,29.98,South,186,4.0,7.6,35,0.00,,---,0.00,VWS V14.01,2013-01-22 12:44:00,
2013-01-22 07:49:00,8.1,-13.9,29.98,SSW,213,4.0,8.7,35,0.00,,---,0.00,VWS V14.01,2013-01-22 12:49:00,
2013-01-22 07:54:00,8.1,-13.9,29.98,SSW,208,4.0,4.9,35,0.00,,---,0.00,VWS V14.01,2013-01-22 12:54:00,
2013-01-22 07:59:00,8.1,-13.9,29.98,SW,227,6.3,7.6,35,0.00,,---,0.00,VWS V14.01,2013-01-22 12:59:00,
2013-01-22 08:04:00,8.1,-13.9,29.98,SSE,165,5.4,5.8,35,0.00,,---,0.00,VWS V14.01,2013-01-22 13:04:00,
2013-01-22 08:09:00,8.1,-13.9,29.98,SW,232,2.7,6.7,35,0.00,,---,0.00,VWS V14.01,2013-01-22 13:09:00,
2013-01-22 08:14:00,8.1,-13.9,30.01,South,184,4.0,4.9,35,0.00,,---,0.00,VWS V14.01,2013-01-22 13:14:00,
2013-01-22 08:19:00,8.1,-13.9,30.01,ENE,65,3.6,4.9,35,0.00,,---,0.00,VWS V14.01,2013-01-22 13:19:00,
2013-01-22 08:24:00,8.1,-13.9,30.01,NW,304,0.0,0.0,35,0.00,,---,0.00,VWS V14.01,2013-01-22 13:24:00,
2013-01-22 08:29:00,8.1,-13.9,30.01,WSW,258,0.0,5.8,35,0.00,,---,0.00,VWS V14.01,2013-01-22 13:29:00,
2013-01-22 08:34:00,8.1,-13.9,30.01,WSW,247,3.1,3.1,35,0.00,,---,0.00,VWS V14.01,2013-01-22 13:34:00,
2013-01-22 08:39:00,8.1,-13.9,30.01,SSW,200,0.0,2.7,35,0.00,,---,0.00,VWS V14.01,2013-01-22 13:39:00,
2013-01-22 08:44:00,8.1,-13.9,30.01,SSW,212,5.4,5.4,35,0.00,,---,0.00,VWS V14.01,2013-01-22 13:44:00,
2013-01-22 08:49:00,8.1,-13.9,30.01,SSE,151,4.0,4.0,35,0.00,,---,0.00,VWS V14.01,2013-01-22 13:49:00,
2013-01-22 08:54:00,8.4,-13.6,30.01,SSW,201,4.9,4.9,35,0.00,,---,0.00,VWS V14.01,2013-01-22 13:54:00,
2013-01-22 08:59:00,8.4,-13.6,30.01,SSW,207,3.1,5.8,35,0.00,,---,0.00,VWS V14.01,2013-01-22 13:59:00,
2013-01-22 09:04:00,8.4,-13.6,30.01,SSW,205,9.6,9.6,35,0.00,,---,0.00,VWS V14.01,2013-01-22 14:04:00,
2013-01-22 09:09:00,8.4,-13.6,30.01,WSW,246,4.0,6.3,35,0.00,,---,0.00,VWS V14.01,2013-01-22 14:09:00,
2013-01-22 09:14:00,8.4,-13.6,30.01,SSW,207,6.3,8.1,35,0.00,,---,0.00,VWS V14.01,2013-01-22 14:14:00,
2013-01-22 09:19:00,8.6,-13.4,30.01,SSW,207,6.3,8.3,35,0.00,,---,0.00,VWS V14.01,2013-01-22 14:19:00,
2013-01-22 09:24:00,8.6,-13.4,30.01,SW,220,6.3,6.3,35,0.00,,---,0.00,VWS V14.01,2013-01-22 14:24:00,
2013-01-22 09:29:00,8.8,-13.3,30.03,SW,215,16.8,16.8,35,0.00,,---,0.00,VWS V14.01,2013-01-22 14:29:00,
2013-01-22 09:35:00,8.8,-13.3,30.03,South,184,6.3,13.2,35,0.00,,---,0.00,VWS V14.01,2013-01-22 14:35:00,
2013-01-22 09:40:00,8.8,-13.3,30.03,SW,218,6.7,8.7,35,0.00,,---,0.00,VWS V14.01,2013-01-22 14:40:00,
2013-01-22 09:45:00,9.0,-13.1,30.03,SW,219,4.9,5.4,35,0.00,,---,0.00,VWS V14.01,2013-01-22 14:45:00,
2013-01-22 09:50:00,9.1,-12.9,30.03,WSW,250,4.9,8.1,35,0.00,,---,0.00,VWS V14.01,2013-01-22 14:50:00,
2013-01-22 09:55:00,9.3,-12.8,30.03,SSE,168,4.5,8.1,35,0.00,,---,0.00,VWS V14.01,2013-01-22 14:55:00,
2013-01-22 10:00:00,9.5,-12.6,30.03,SSW,203,6.3,7.6,35,0.00,,---,0.00,VWS V14.01,2013-01-22 15:00:00,
2013-01-22 10:05:00,9.7,-12.5,30.03,SSW,203,2.2,6.3,35,0.00,,---,0.00,VWS V14.01,2013-01-22 15:05:00,
2013-01-22 10:10:00,10.0,-12.1,30.03,SSE,156,2.2,3.6,35,0.00,,---,0.00,VWS V14.01,2013-01-22 15:10:00,
2013-01-22 10:15:00,10.0,-12.1,30.03,SSE,167,3.1,3.1,35,0.00,,---,0.00,VWS V14.01,2013-01-22 15:15:00,
2013-01-22 10:20:00,10.2,-12.0,30.03,SW,222,2.7,4.0,35,0.00,,---,0.00,VWS V14.01,2013-01-22 15:20:00,
2013-01-22 10:25:00,10.4,-11.8,30.03,SSE,166,6.3,6.3,35,0.00,,---,0.00,VWS V14.01,2013-01-22 15:25:00,
2013-01-22 10:30:00,10.6,-11.7,30.03,SE,126,3.1,3.1,35,0.00,,---,0.00,VWS V14.01,2013-01-22 15:30:00,
2013-01-22 10:35:00,10.8,-11.5,30.03,SSW,203,3.6,3.6,35,0.00,,---,0.00,VWS V14.01,2013-01-22 15:35:00,
2013-01-22 10:40:00,10.9,-11.3,30.03,SW,232,3.6,5.4,35,0.00,,---,0.00,VWS V14.01,2013-01-22 15:40:00,
2013-01-22 10:45:00,10.9,-11.3,30.03,South,175,3.6,5.4,35,0.00,,---,0.00,VWS V14.01,2013-01-22 15:45:00,
2013-01-22 10:50:00,10.9,-11.3,30.03,SSW,192,8.1,8.1,35,0.00,,---,0.00,VWS V14.01,2013-01-22 15:50:00,
2013-01-22 10:56:00,10.9,-11.3,30.03,South,186,3.1,4.9,35,0.00,,---,0.00,VWS V14.01,2013-01-22 15:56:00,
2013-01-22 11:01:00,11.1,-11.2,30.03,North,353,4.9,5.8,35,0.00,,---,0.00,VWS V14.01,2013-01-22 16:01:00,
2013-01-22 11:06:00,11.3,-11.0,30.03,SSW,203,3.6,5.8,35,0.00,,---,0.00,VWS V14.01,2013-01-22 16:06:00,
2013-01-22 11:11:00,11.7,-10.7,30.03,SSE,160,3.1,4.0,35,0.00,,---,0.00,VWS V14.01,2013-01-22 16:11:00,
2013-01-22 11:16:00,11.8,-10.5,30.03,ESE,117,2.7,3.6,35,0.00,,---,0.00,VWS V14.01,2013-01-22 16:16:00,
2013-01-22 11:21:00,12.0,-10.4,30.03,WSW,238,5.8,5.8,35,0.00,,---,0.00,VWS V14.01,2013-01-22 16:21:00,
2013-01-22 11:26:00,12.4,-10.1,30.03,SW,216,4.0,6.3,35,0.00,,---,0.00,VWS V14.01,2013-01-22 16:26:00,
2013-01-22 11:31:00,12.7,-9.7,30.03,ENE,61,3.6,4.9,35,0.00,,---,0.00,VWS V14.01,2013-01-22 16:31:00,
2013-01-22 11:36:00,12.9,-9.6,30.03,SSW,207,7.6,7.6,35,0.00,,---,0.00,VWS V14.01,2013-01-22 16:36:00,
2013-01-22 11:41:00,12.9,-9.6,30.03,South,176,5.4,8.7,35,0.00,,---,0.00,VWS V14.01,2013-01-22 16:41:00,
2013-01-22 11:46:00,12.7,-9.7,30.03,SSW,207,6.3,8.7,35,0.00,,---,0.00,VWS V14.01,2013-01-22 16:46:00,
2013-01-22 11:51:00,12.6,-9.9,30.03,SW,217,8.1,8.1,35,0.00,,---,0.00,VWS V14.01,2013-01-22 16:51:00,
2013-01-22 11:57:00,12.6,-9.9,30.03,WSW,251,5.8,6.3,35,0.00,,---,0.00,VWS V14.01,2013-01-22 16:57:00,
2013-01-22 12:02:00,12.9,-9.6,30.03,SW,228,9.6,10.5,35,0.00,,---,0.00,VWS V14.01,2013-01-22 17:02:00,
2013-01-22 12:07:00,12.9,-9.6,30.03,SSW,192,6.3,7.6,35,0.00,,---,0.00,VWS V14.01,2013-01-22 17:07:00,
2013-01-22 12:12:00,12.7,-9.7,30.03,South,175,10.5,10.5,35,0.00,,---,0.00,VWS V14.01,2013-01-22 17:12:00,
2013-01-22 12:17:00,12.6,-9.9,30.03,SW,219,3.6,8.1,35,0.00,,---,0.00,VWS V14.01,2013-01-22 17:17:00,
2013-01-22 12:22:00,13.1,-9.4,30.03,SSW,200,10.5,10.5,35,0.00,,---,0.00,VWS V14.01,2013-01-22 17:22:00,
2013-01-22 12:27:00,13.5,-9.1,30.01,South,191,8.3,8.3,35,0.00,,---,0.00,VWS V14.01,2013-01-22 17:27:00,
2013-01-22 12:32:00,13.5,-9.1,30.01,SW,227,12.3,12.8,35,0.00,,---,0.00,VWS V14.01,2013-01-22 17:32:00,
2013-01-22 12:38:00,13.5,-9.1,30.01,SSW,208,10.5,14.1,35,0.00,,---,0.00,VWS V14.01,2013-01-22 17:38:00,
2013-01-22 12:43:00,13.8,-8.8,30.03,SW,220,7.6,15.4,35,0.00,,---,0.00,VWS V14.01,2013-01-22 17:43:00,
2013-01-22 12:48:00,14.2,-14.4,30.03,SW,236,10.5,10.5,26,0.00,,---,0.00,VWS V14.01,2013-01-22 17:48:00,
2013-01-22 12:53:00,14.5,-14.1,30.03,SSW,195,8.3,12.3,26,0.00,,---,0.00,VWS V14.01,2013-01-22 17:53:00,
2013-01-22 12:58:00,14.5,-14.1,30.01,South,171,5.8,13.2,26,0.00,,---,0.00,VWS V14.01,2013-01-22 17:58:00,
2013-01-22 13:03:00,14.7,-13.9,30.01,SW,232,5.4,7.6,26,0.00,,---,0.00,VWS V14.01,2013-01-22 18:03:00,
2013-01-22 13:08:00,15.3,-13.5,30.01,SW,218,6.7,6.7,26,0.00,,---,0.00,VWS V14.01,2013-01-22 18:08:00,
2013-01-22 13:13:00,16.0,-12.8,30.01,ESE,112,6.3,8.1,26,0.00,,---,0.00,VWS V14.01,2013-01-22 18:13:00,
2013-01-22 13:18:00,16.5,-12.4,30.01,SW,221,4.9,4.9,26,0.00,,---,0.00,VWS V14.01,2013-01-22 18:18:00,
2013-01-22 13:23:00,17.1,-11.9,30.01,SSE,160,8.3,15.4,26,0.00,,---,0.00,VWS V14.01,2013-01-22 18:23:00,
2013-01-22 13:28:00,16.5,-12.4,30.01,SSW,207,15.4,15.4,26,0.00,,---,0.00,VWS V14.01,2013-01-22 18:28:00,
2013-01-22 13:33:00,16.0,-12.8,30.01,SW,215,10.5,11.4,26,0.00,,---,0.00,VWS V14.01,2013-01-22 18:33:00,
2013-01-22 13:38:00,15.4,-13.3,30.01,SSW,207,5.8,17.4,26,0.00,,---,0.00,VWS V14.01,2013-01-22 18:38:00,
2013-01-22 13:43:00,15.3,-13.5,30.01,South,189,7.6,7.6,26,0.00,,---,0.00,VWS V14.01,2013-01-22 18:43:00,
2013-01-22 13:48:00,15.8,-13.0,30.01,SSW,203,9.2,9.2,26,0.00,,---,0.00,VWS V14.01,2013-01-22 18:48:00,
2013-01-22 13:53:00,16.9,-12.1,30.01,SSW,200,7.6,7.6,26,0.00,,---,0.00,VWS V14.01,2013-01-22 18:53:00,
2013-01-22 13:58:00,17.6,-11.4,30.01,SSE,159,6.7,6.7,26,0.00,,---,0.00,VWS V14.01,2013-01-22 18:58:00,
2013-01-22 14:03:00,18.1,-11.8,30.01,SE,143,5.4,5.8,25,0.00,,---,0.00,VWS V14.01,2013-01-22 19:03:00,
2013-01-22 14:08:00,18.5,-11.4,30.01,ESE,123,4.9,5.4,25,0.00,,---,0.00,VWS V14.01,2013-01-22 19:08:00,
2013-01-22 14:13:00,18.5,-11.4,30.01,ESE,106,4.9,4.9,25,0.00,,---,0.00,VWS V14.01,2013-01-22 19:13:00,
2013-01-22 14:18:00,19.0,-11.0,30.01,SW,234,5.8,7.6,25,0.00,,---,0.00,VWS V14.01,2013-01-22 19:18:00,
2013-01-22 14:23:00,18.7,-11.3,30.01,West,262,4.0,5.8,25,0.00,,---,0.00,VWS V14.01,2013-01-22 19:23:00,
2013-01-22 14:28:00,18.7,-11.3,30.01,SSW,208,8.3,8.3,25,0.00,,---,0.00,VWS V14.01,2013-01-22 19:28:00,
2013-01-22 14:34:00,18.7,-11.3,30.01,SSE,153,8.1,8.7,25,0.00,,---,0.00,VWS V14.01,2013-01-22 19:34:00,
2013-01-22 14:38:00,18.9,-11.1,30.01,SSW,205,8.1,8.1,25,0.00,,---,0.00,VWS V14.01,2013-01-22 19:38:00,
2013-01-22 14:44:00,18.7,-11.3,30.01,SW,226,5.4,7.6,25,0.00,,---,0.00,VWS V14.01,2013-01-22 19:44:00,
2013-01-22 14:48:00,18.1,-11.8,30.01,SSW,211,10.1,10.1,25,0.00,,---,0.00,VWS V14.01,2013-01-22 19:48:00,
2013-01-22 14:54:00,18.1,-11.8,30.01,WSW,240,10.1,11.0,25,0.00,,---,0.00,VWS V14.01,2013-01-22 19:54:00,
2013-01-22 14:59:00,17.8,-12.1,30.01,SSE,167,10.1,10.1,25,0.00,,---,0.00,VWS V14.01,2013-01-22 19:59:00,
2013-01-22 15:04:00,17.8,-12.1,30.01,SW,217,10.1,10.1,25,0.00,,---,0.00,VWS V14.01,2013-01-22 20:04:00,
2013-01-22 15:09:00,18.3,-11.6,30.01,SW,231,14.5,15.4,25,0.00,,---,0.00,VWS V14.01,2013-01-22 20:09:00,
2013-01-22 15:14:00,18.5,-11.4,30.01,SSE,165,5.8,5.8,25,0.00,,---,0.00,VWS V14.01,2013-01-22 20:14:00,
2013-01-22 15:19:00,19.2,-10.8,30.01,South,177,5.4,5.8,25,0.00,,---,0.00,VWS V14.01,2013-01-22 20:19:00,
2013-01-22 15:24:00,19.8,-10.4,30.01,SW,222,5.8,5.8,25,0.00,,---,0.00,VWS V14.01,2013-01-22 20:24:00,
2013-01-22 15:29:00,19.9,-10.2,30.01,SW,233,5.8,5.8,25,0.00,,---,0.00,VWS V14.01,2013-01-22 20:29:00,
2013-01-22 15:34:00,19.9,-10.2,30.01,WSW,248,7.6,7.6,25,0.00,,---,0.00,VWS V14.01,2013-01-22 20:34:00,
2013-01-22 15:39:00,19.0,-11.0,30.01,South,174,5.8,8.1,25,0.00,,---,0.00,VWS V14.01,2013-01-22 20:39:00,
2013-01-22 15:44:00,18.9,-11.1,30.01,SSE,148,6.3,6.3,25,0.00,,---,0.00,VWS V14.01,2013-01-22 20:44:00,
2013-01-22 15:49:00,19.2,-10.8,30.01,SW,230,5.4,8.1,25,0.00,,---,0.00,VWS V14.01,2013-01-22 20:49:00,
2013-01-22 15:54:00,19.6,-10.5,30.01,SSE,154,5.8,6.3,25,0.00,,---,0.00,VWS V14.01,2013-01-22 20:54:00,
2013-01-22 15:59:00,19.4,-10.7,30.01,SE,136,2.7,3.1,25,0.00,,---,0.00,VWS V14.01,2013-01-22 20:59:00,
2013-01-22 16:04:00,19.8,-10.4,30.01,SW,234,2.7,3.6,25,0.00,,---,0.00,VWS V14.01,2013-01-22 21:04:00,
2013-01-22 16:09:00,19.8,-10.4,30.01,ENE,71,8.7,8.7,25,0.00,,---,0.00,VWS V14.01,2013-01-22 21:09:00,
2013-01-22 16:14:00,19.8,-10.4,30.01,South,173,3.1,4.9,25,0.00,,---,0.00,VWS V14.01,2013-01-22 21:14:00,
2013-01-22 16:19:00,19.8,-10.4,30.01,South,190,4.9,6.7,25,0.00,,---,0.00,VWS V14.01,2013-01-22 21:19:00,
2013-01-22 16:25:00,19.2,-10.8,30.01,SW,220,4.9,4.9,25,0.00,,---,0.00,VWS V14.01,2013-01-22 21:25:00,
2013-01-22 16:30:00,19.0,-11.0,30.01,WSW,255,5.8,8.7,25,0.00,,---,0.00,VWS V14.01,2013-01-22 21:30:00,
2013-01-22 16:31:00,19.0,-11.0,30.01,SSW,199,5.4,7.6,25,0.00,,---,0.00,VWS V14.01,2013-01-22 21:31:00,
2013-01-22 16:36:00,18.7,-11.3,30.01,South,172,2.7,5.8,25,0.00,,---,0.00,VWS V14.01,2013-01-22 21:36:00,
2013-01-22 16:41:00,18.9,-11.1,30.03,SSE,155,5.4,8.1,25,0.00,,---,0.00,VWS V14.01,2013-01-22 21:41:00,
2013-01-22 16:46:00,18.5,-11.4,30.03,SSW,200,2.7,3.6,25,0.00,,---,0.00,VWS V14.01,2013-01-22 21:46:00,
2013-01-22 16:51:00,18.7,-11.3,30.03,South,188,0.0,3.1,25,0.00,,---,0.00,VWS V14.01,2013-01-22 21:51:00,
2013-01-22 16:56:00,18.9,-11.1,30.03,SSW,205,5.4,7.6,25,0.00,,---,0.00,VWS V14.01,2013-01-22 21:56:00,
2013-01-22 17:01:00,18.3,-11.6,30.03,ENE,77,0.0,3.1,25,0.00,,---,0.00,VWS V14.01,2013-01-22 22:01:00,
2013-01-22 17:06:00,17.8,-12.1,30.03,SE,141,4.0,10.5,25,0.00,,---,0.00,VWS V14.01,2013-01-22 22:06:00,
2013-01-22 17:11:00,17.1,-14.3,30.03,SW,233,2.7,2.7,23,0.00,,---,0.00,VWS V14.01,2013-01-22 22:11:00,
2013-01-22 17:16:00,16.7,-12.2,30.03,WSW,241,2.2,2.2,26,0.00,,---,0.00,VWS V14.01,2013-01-22 22:16:00,
2013-01-22 17:21:00,16.3,-12.5,30.03,SSE,151,5.8,5.8,26,0.00,,---,0.00,VWS V14.01,2013-01-22 22:21:00,
2013-01-22 17:27:00,15.4,-13.3,30.03,SSE,167,2.7,2.7,26,0.00,,---,0.00,VWS V14.01,2013-01-22 22:27:00,
2013-01-22 17:32:00,15.1,-13.6,30.03,WSW,253,3.6,4.0,26,0.00,,---,0.00,VWS V14.01,2013-01-22 22:32:00,
2013-01-22 17:37:00,14.5,-14.1,30.03,NNE,27,0.0,0.0,26,0.00,,---,0.00,VWS V14.01,2013-01-22 22:37:00,
2013-01-22 17:42:00,14.2,-14.4,30.03,SSE,150,3.1,3.1,26,0.00,,---,0.00,VWS V14.01,2013-01-22 22:42:00,
2013-01-22 17:47:00,14.0,-13.8,30.03,NNE,17,0.0,0.0,27,0.00,,---,0.00,VWS V14.01,2013-01-22 22:47:00,
2013-01-22 17:52:00,13.8,-14.0,30.03,SW,231,2.2,3.6,27,0.00,,---,0.00,VWS V14.01,2013-01-22 22:52:00,
2013-01-22 17:57:00,13.5,-14.3,30.03,SW,231,0.0,0.0,27,0.00,,---,0.00,VWS V14.01,2013-01-22 22:57:00,
2013-01-22 18:02:00,13.3,-14.4,30.03,East,87,0.0,0.0,27,0.00,,---,0.00,VWS V14.01,2013-01-22 23:02:00,
2013-01-22 18:07:00,13.3,-14.4,30.03,West,274,2.7,2.7,27,0.00,,---,0.00,VWS V14.01,2013-01-22 23:07:00,
2013-01-22 18:12:00,13.3,-14.4,30.03,SW,224,0.0,0.0,27,0.00,,---,0.00,VWS V14.01,2013-01-22 23:12:00,
2013-01-22 18:17:00,13.3,-14.4,30.03,SW,218,4.0,6.3,27,0.00,,---,0.00,VWS V14.01,2013-01-22 23:17:00,
2013-01-22 18:22:00,13.1,-14.6,30.03,SSW,210,8.3,8.3,27,0.00,,---,0.00,VWS V14.01,2013-01-22 23:22:00,
2013-01-22 18:27:00,13.1,-14.6,30.03,SSW,204,3.1,4.0,27,0.00,,---,0.00,VWS V14.01,2013-01-22 23:27:00,
2013-01-22 18:32:00,12.9,-14.8,30.03,ESE,103,6.3,8.3,27,0.00,,---,0.00,VWS V14.01,2013-01-22 23:32:00,
2013-01-22 18:37:00,12.9,-14.8,30.03,SW,235,2.2,2.2,27,0.00,,---,0.00,VWS V14.01,2013-01-22 23:37:00,
2013-01-22 18:42:00,12.9,-14.8,30.03,SW,224,5.8,5.8,27,0.00,,---,0.00,VWS V14.01,2013-01-22 23:42:00,
2013-01-22 18:48:00,12.9,-14.8,30.03,West,261,0.0,0.0,27,0.00,,---,0.00,VWS V14.01,2013-01-22 23:48:00,
2013-01-22 18:53:00,12.7,-14.9,30.03,SW,229,2.2,4.0,27,0.00,,---,0.00,VWS V14.01,2013-01-22 23:53:00,
2013-01-22 18:58:00,12.6,-15.1,30.06,SSW,206,3.1,3.1,27,0.00,,---,0.00,VWS V14.01,2013-01-22 23:58:00,
2013-01-22 19:03:00,12.6,-15.1,30.06,SW,218,3.1,3.6,27,0.00,,---,0.00,VWS V14.01,2013-01-23 00:03:00,
2013-01-22 19:08:00,12.4,-15.2,30.06,SSW,205,2.2,2.7,27,0.00,,---,0.00,VWS V14.01,2013-01-23 00:08:00,
2013-01-22 19:20:00,12.2,-15.4,30.03,SSW,199,3.6,4.9,27,0.00,,---,0.00,VWS V14.01,2013-01-23 00:20:00,
2013-01-22 19:26:00,12.2,-15.4,30.06,South,187,0.0,3.1,27,0.00,,---,0.00,VWS V14.01,2013-01-23 00:26:00,
2013-01-22 19:31:00,12.2,-15.4,30.06,SSW,204,4.0,4.0,27,0.00,,---,0.00,VWS V14.01,2013-01-23 00:31:00,
2013-01-22 19:36:00,12.2,-15.4,30.06,SSW,207,4.9,4.9,27,0.00,,---,0.00,VWS V14.01,2013-01-23 00:36:00,
2013-01-22 19:41:00,12.2,-15.4,30.06,SW,214,3.6,3.6,27,0.00,,---,0.00,VWS V14.01,2013-01-23 00:41:00,
2013-01-22 19:46:00,12.0,-15.5,30.06,SSW,213,0.0,4.5,27,0.00,,---,0.00,VWS V14.01,2013-01-23 00:46:00,
2013-01-22 19:51:00,12.0,-15.5,30.06,SW,230,0.0,0.0,27,0.00,,---,0.00,VWS V14.01,2013-01-23 00:51:00,
2013-01-22 19:56:00,11.8,-15.7,30.06,SE,138,0.0,0.0,27,0.00,,---,0.00,VWS V14.01,2013-01-23 00:56:00,
2013-01-22 20:01:00,11.7,-15.9,30.06,ESE,111,0.0,0.0,27,0.00,,---,0.00,VWS V14.01,2013-01-23 01:01:00,
2013-01-22 20:06:00,11.5,-16.0,30.06,South,176,3.6,3.6,27,0.00,,---,0.00,VWS V14.01,2013-01-23 01:06:00,
2013-01-22 20:12:00,11.7,-15.9,30.06,ESE,120,0.0,3.6,27,0.00,,---,0.00,VWS V14.01,2013-01-23 01:12:00,
2013-01-22 20:17:00,11.7,-15.9,30.06,SSW,213,2.2,3.1,27,0.00,,---,0.00,VWS V14.01,2013-01-23 01:17:00,
2013-01-22 20:22:00,11.7,-15.9,30.06,SW,217,0.0,3.1,27,0.00,,---,0.00,VWS V14.01,2013-01-23 01:22:00,
2013-01-22 20:27:00,11.7,-15.9,30.06,SSW,194,4.9,5.4,27,0.00,,---,0.00,VWS V14.01,2013-01-23 01:27:00,
2013-01-22 20:32:00,11.7,-15.9,30.06,SSW,201,0.0,0.0,27,0.00,,---,0.00,VWS V14.01,2013-01-23 01:32:00,
2013-01-22 20:37:00,11.7,-15.9,30.06,SW,216,0.0,0.0,27,0.00,,---,0.00,VWS V14.01,2013-01-23 01:37:00,
2013-01-22 20:42:00,11.3,-16.2,30.03,SW,216,0.0,0.0,27,0.00,,---,0.00,VWS V14.01,2013-01-23 01:42:00,
2013-01-22 20:48:00,10.9,-16.5,30.03,WSW,250,3.1,4.0,27,0.00,,---,0.00,VWS V14.01,2013-01-23 01:48:00,
2013-01-22 20:53:00,10.9,-16.5,30.03,WSW,250,0.0,0.0,27,0.00,,---,0.00,VWS V14.01,2013-01-23 01:53:00,
2013-01-22 20:58:00,10.9,-16.5,30.03,SSW,213,0.0,0.0,27,0.00,,---,0.00,VWS V14.01,2013-01-23 01:58:00,
2013-01-22 21:03:00,10.9,-16.5,30.03,WSW,247,0.0,0.0,27,0.00,,---,0.00,VWS V14.01,2013-01-23 02:03:00,
2013-01-22 21:08:00,10.9,-16.5,30.03,WSW,247,0.0,0.0,27,0.00,,---,0.00,VWS V14.01,2013-01-23 02:08:00,
2013-01-22 21:13:00,10.8,-16.6,30.06,WSW,247,0.0,0.0,27,0.00,,---,0.00,VWS V14.01,2013-01-23 02:13:00,
2013-01-22 21:18:00,10.8,-16.6,30.06,WSW,247,0.0,0.0,27,0.00,,---,0.00,VWS V14.01,2013-01-23 02:18:00,
2013-01-22 21:23:00,10.6,-16.8,30.06,WSW,247,0.0,0.0,27,0.00,,---,0.00,VWS V14.01,2013-01-23 02:23:00,
2013-01-22 21:28:00,10.4,-17.0,30.06,WSW,247,0.0,0.0,27,0.00,,---,0.00,VWS V14.01,2013-01-23 02:28:00,
2013-01-22 21:33:00,10.4,-17.0,30.06,WSW,246,0.0,0.0,27,0.00,,---,0.00,VWS V14.01,2013-01-23 02:33:00,
2013-01-22 21:38:00,10.4,-17.0,30.06,South,169,0.0,2.7,27,0.00,,---,0.00,VWS V14.01,2013-01-23 02:38:00,
2013-01-22 21:43:00,10.4,-17.0,30.06,ESE,122,0.0,0.0,27,0.00,,---,0.00,VWS V14.01,2013-01-23 02:43:00,
2013-01-22 21:49:00,10.4,-17.0,30.06,SE,131,0.0,0.0,27,0.00,,---,0.00,VWS V14.01,2013-01-23 02:49:00,
2013-01-22 21:53:00,10.6,-16.8,30.06,SSW,206,2.7,3.6,27,0.00,,---,0.00,VWS V14.01,2013-01-23 02:53:00,
2013-01-22 21:59:00,10.8,-16.6,30.06,SSW,207,0.0,0.0,27,0.00,,---,0.00,VWS V14.01,2013-01-23 02:59:00,
2013-01-22 22:04:00,10.8,-16.6,30.06,SW,216,0.0,4.0,27,0.00,,---,0.00,VWS V14.01,2013-01-23 03:04:00,
2013-01-22 22:09:00,10.8,-16.6,30.06,SSW,198,0.0,0.0,27,0.00,,---,0.00,VWS V14.01,2013-01-23 03:09:00,
2013-01-22 22:14:00,10.8,-16.6,30.06,SSW,199,0.0,0.0,27,0.00,,---,0.00,VWS V14.01,2013-01-23 03:14:00,
2013-01-22 22:19:00,10.9,-16.5,30.06,SE,146,0.0,3.1,27,0.00,,---,0.00,VWS V14.01,2013-01-23 03:19:00,
2013-01-22 22:24:00,10.9,-16.5,30.06,South,181,6.3,6.7,27,0.00,,---,0.00,VWS V14.01,2013-01-23 03:24:00,
2013-01-22 22:29:00,10.9,-16.5,30.06,South,171,4.9,4.9,27,0.00,,---,0.00,VWS V14.01,2013-01-23 03:29:00,
2013-01-22 22:34:00,10.9,-16.5,30.06,SE,141,0.0,0.0,27,0.00,,---,0.00,VWS V14.01,2013-01-23 03:34:00,
2013-01-22 22:39:00,10.9,-16.5,30.06,SSW,211,0.0,0.0,27,0.00,,---,0.00,VWS V14.01,2013-01-23 03:39:00,
2013-01-22 22:44:00,10.9,-16.5,30.06,South,182,6.3,6.3,27,0.00,,---,0.00,VWS V14.01,2013-01-23 03:44:00,
2013-01-22 22:49:00,10.9,-16.5,30.06,SW,219,0.0,0.0,27,0.00,,---,0.00,VWS V14.01,2013-01-23 03:49:00,
2013-01-22 22:54:00,10.9,-16.5,30.06,SE,136,2.7,4.0,27,0.00,,---,0.00,VWS V14.01,2013-01-23 03:54:00,
2013-01-22 22:59:00,10.8,-16.6,30.06,SW,221,2.7,4.0,27,0.00,,---,0.00,VWS V14.01,2013-01-23 03:59:00,
2013-01-22 23:04:00,10.8,-16.6,30.06,South,184,3.6,3.6,27,0.00,,---,0.00,VWS V14.01,2013-01-23 04:04:00,
2013-01-22 23:09:00,10.8,-16.6,30.06,South,179,5.8,5.8,27,0.00,,---,0.00,VWS V14.01,2013-01-23 04:09:00,
2013-01-22 23:14:00,10.8,-16.6,30.06,SSW,205,3.6,3.6,27,0.00,,---,0.00,VWS V14.01,2013-01-23 04:14:00,
2013-01-22 23:19:00,10.8,-16.6,30.06,SSE,160,4.0,4.9,27,0.00,,---,0.00,VWS V14.01,2013-01-23 04:19:00,
2013-01-22 23:24:00,10.8,-16.6,30.06,South,184,9.2,9.2,27,0.00,,---,0.00,VWS V14.01,2013-01-23 04:24:00,
2013-01-22 23:30:00,10.8,-16.6,30.06,SW,215,5.8,5.8,27,0.00,,---,0.00,VWS V14.01,2013-01-23 04:30:00,
2013-01-22 23:35:00,10.8,-16.6,30.06,SW,223,5.8,5.8,27,0.00,,---,0.00,VWS V14.01,2013-01-23 04:35:00,
2013-01-22 23:40:00,10.8,-16.6,30.06,SSE,165,4.0,5.4,27,0.00,,---,0.00,VWS V14.01,2013-01-23 04:40:00,
2013-01-22 23:45:00,10.6,-16.8,30.06,SW,232,6.3,8.7,27,0.00,,---,0.00,VWS V14.01,2013-01-23 04:45:00,
2013-01-22 23:50:00,10.6,-16.8,30.06,SE,137,5.4,5.8,27,0.00,,---,0.00,VWS V14.01,2013-01-23 04:50:00,
2013-01-22 23:55:00,10.4,-17.0,30.06,WSW,257,4.0,11.0,27,0.00,,---,0.00,VWS V14.01,2013-01-23 04:55:00,